Regional Weather Roundup
Issued by NWS Kansas City/Pleasant Hill, MO

Home | Current Version | Previous Version | Graphics & Text | Print | Product List | Glossary Off
Versions: 1 2 3 4 5 6 7 8 9 10 11 12 13 14 15 16 17 18 19 20 21 22 23 24 25 26 27

000
ASUS43 KEAX 221210
RWREAX

WEATHER ROUNDUP FOR EASTERN KANSAS AND NORTHWEST MISSOURI
NATIONAL WEATHER SERVICE KANSAS CITY/PLEASANT HILL MO
700 AM CDT MON MAY 22 2017

KSZ040-057-103>105-MOZ028-029-037-043-221300-
...KANSAS CITY METROPOLITAN AREA...

CITY           SKY/WX    TMP DP  RH WIND       PRES   REMARKS
K.C. INTL      CLOUDY    54  50  86 S6        30.06S
6HR MIN TEMP:  48; 6HR MAX TEMP:  54;

K.C. DOWNTOWN  CLEAR     58  51  78 S5        30.06S
6HR MIN TEMP:  54; 6HR MAX TEMP:  58;

LEES SUMMIT    MOSUNNY   59  51  75 SW13      30.08S
6HR MIN TEMP:  55; 6HR MAX TEMP:  59;

OLATHE - IXD   PTCLDY    53  51  93 S6        30.08S
6HR MIN TEMP:  50; 6HR MAX TEMP:  53;

OLATHE - OJC   CLEAR     54  52  93 S7        30.08S
6HR MIN TEMP:  50; 6HR MAX TEMP:  54;

LAWRENCE       PTCLDY    53  51  93 E3        30.08R

$$

MOZ001>008-011>017-020>025-030>033-038>040-044>046-053-054-221300-
...NORTHERN AND CENTRAL MISSOURI...

CITY           SKY/WX    TMP DP  RH WIND       PRES   REMARKS
ST. JOSEPH     CLOUDY    54  50  86 S5        30.05S
6HR MIN TEMP:  49; 6HR MAX TEMP:  54;

MOSBY          MOSUNNY   50  48  93 CALM      30.07S
WARRENSBURG    SUNNY     52  48  87 S6        30.09S
WHITEMAN AFB   MOSUNNY   53  53 100 S6        30.08S
6HR MIN TEMP:  49; 6HR MAX TEMP:  53;

CLINTON        SUNNY     50  50 100 CALM      30.11S
SEDALIA        SUNNY     55  50  83 S7        30.11R
6HR MIN TEMP:  49; 6HR MAX TEMP:  55;

WARSAW         NOT AVBL
CHILLICOTHE      N/A     52  47  83 S3        30.08S
6HR MIN TEMP:  45; 6HR MAX TEMP:  52;

KIRKSVILLE     SUNNY     49  46  90 S7        30.08S
6HR MIN TEMP:  41; 6HR MAX TEMP:  52;


$$

MOZ041-047>049-056>058-063>065-088>090-097-221300-
...EASTERN AND SOUTHERN MISSOURI...

CITY           SKY/WX    TMP DP  RH WIND       PRES   REMARKS
ST. LOUIS INTL PTSUNNY   57  47  69 VRB6      30.13R
6HR MIN TEMP:  54; 6HR MAX TEMP:  60;

SPIRIT OF STL  CLOUDY    50  49  96 CALM      30.13R
COLUMBIA       CLOUDY    51  49  92 S6        30.12R
JEFFERSON CITY CLOUDY    52  48  86 SE5       30.13R
ROLLA          CLOUDY    50  46  86 S6        30.13R
OSAGE BEACH    CLOUDY    47  46  97 E3        30.14S
SPRINGFIELD    CLOUDY    52  49  89 SE7       30.13S
BRANSON        PTSUNNY   54  50  87 CALM      30.16R
JOPLIN         MOCLDY    56  53  90 CALM      30.14R
WEST PLAINS    CLOUDY    50  47  89 CALM      30.16F

$$

IAZ060-094-KSZ022-034>040-054-083-096-NEZ052-066-093-221300-
...KANSAS...SOUTHEAST NEBRASKA AND IOWA...

CITY           SKY/WX    TMP DP  RH WIND       PRES   REMARKS
TOPEKA         CLOUDY    57  53  86 W3        30.08R
6HR MIN TEMP:  51; 6HR MAX TEMP:  57;

MANHATTAN      CLOUDY    56  54  93 CALM      30.07S
EMPORIA        CLOUDY    56  54  93 S5        30.08S
CHANUTE        CLOUDY    58  54  86 MISG      30.11R
WICHITA        MOCLDY    57  54  89 S5        30.09R
OMAHA          CLOUDY    55  47  74 E8        29.97S
LINCOLN        CLOUDY    57  50  77 SW10      30.00S
FALLS CITY     MOCLDY    56  50  80 S5        30.02F
LAMONI         PTSUNNY   52  44  74 S13       30.02S
DES MOINES     PTSUNNY   54  44  69 S12       29.97S

$$





USA.gov is the U.S. government's official web portal to all federal, state and local government web resources and services.